24P/Schaumasse (2017)

Japanese version
Home page
Updated on May 21, 2018

---------------------------------------------------------------------

* Profile

* Pictures

* Orbital Elements

Epoch 2017 Nov. 23.0 TT = JDT 2458080.5
T 2017 Nov. 16.92673 TT                                 MPCW
q   1.2063302            (2000.0)            P               Q
n   0.11943688     Peri.   58.05829     -0.72204650     -0.66228864
a   4.0836052      Node    79.62988     +0.54603784     -0.72309719
e   0.7045919      Incl.   11.73460     +0.42484296     -0.19622490
P   8.25
From 656 observations 1992 Sept. 24-2017 Oct. 1, mean residual 0".8.
     Nongravitational parameters A1 = +0.08, A2 = -0.0478.

* Finding Charts

* Magnitudes Graph

        m1 = 12.0 + 5 log d + 17.0 log r  [   ,-90]  (             - 2017 Aug. 18)
        m1 =  6.0 + 5 log d + 45.0 log r  [-90,  0]  (2017 Aug. 18 - 2017 Nov. 16)
        m1 =  7.2 + 5 log d + 30.0 log r  [  0,170]  (2017 Nov. 16 - 2018 May   5)
        m1 = 12.0 + 5 log d + 17.0 log r  [170,   ]  (2018 May   5 -             )

---------------------------------------------------------------------

The orbital elements are published on M.P.E.C. 2017-T14.
The charts are made with StellaNavigator Ver.8 (AstroArts).
The magnitudes graphs are made with Comet for Windows.

---------------------------------------------------------------------

Copyright(C) Seiichi Yoshida (comet@aerith.net). All rights reserved.